User: anonymous   Login
Location: Unspecified
(0.0000°N, 0.0000°E)
Time: 22:20:33
(UTC+00:00)
Language:

AO-85 - Orbit

View from above orbital plane
View from above orbital plane
View from above satellite
View from above satellite

Ground track
Ground track

The orbit data is extracted from the following two-line orbital elements,

1 40967U 15058D   17325.41478615  .00000164  00000-0  37362-4 0 01560
2 40967 064.7764 101.8930 0183518 021.2684 339.5921 14.75574926022997
Epoch (UTC): 21 November 2017 09:57:17
Eccentricity: 0.0183518
inclination: 64.7764°
perigee height: 514 km
apogee height: 772 km
right ascension of ascending node: 101.8930°
argument of perigee: 21.2684°
revolutions per day: 14.75574926
mean anomaly at epoch: 339.5921°
orbit number at epoch: 2299

The dashed part of the orbit path shows where the satellite is in the earth's shadow,  

DLR